Wind_Speed
44 43 41 39 36 35 35 33 31 30 29 28 27 23 21 18 17 16 15 16 16 16 16 16 16 17 18 20 21 22 23 24 25 26 27 27 28 29 29 30 31 33 34
47 46 45 43 40 38 39 36 34 33 32 31 29 28 24 21 19 19 20 21 21 20 20 20 22 22 23 23 24 26 27 28 29 28 27 28 28 29 29 30 32 33 34
52 50 48 47 44 43 40 38 35 37 33 34 31 29 27 24 23 23 22 23 25 25 25 25 25 24 25 25 25 25 26 28 28 26 26 26 27 27 28 30 31 32 33
55 53 52 50 48 44 42 41 42 38 36 37 32 31 30 28 26 27 26 26 28 27 28 27 24 22 22 22 23 23 25 26 26 27 26 26 27 28 29 30 32 33 34
58 57 54 52 50 48 46 46 45 42 41 40 37 34 32 31 30 30 29 30 29 28 26 22 18 15 16 17 20 22 24 26 26 28 28 28 28 29 29 30 33 35 35
62 60 57 54 53 51 49 48 48 46 45 43 41 38 37 35 33 34 32 33 28 25 22 21 19 19 22 23 26 27 29 30 31 31 31 32 31 30 29 30 32 34 35
60 58 58 56 55 53 52 50 49 48 47 46 45 41 40 38 38 37 35 33 28 23 23 25 23 24 27 28 29 31 33 33 34 35 36 35 36 35 33 32 30 31 34
55 55 53 53 54 53 52 52 51 50 49 49 48 46 43 41 40 39 37 33 28 25 26 25 27 29 30 31 33 34 37 38 39 39 38 38 38 38 37 36 36 34 35
55 53 52 51 51 50 51 52 52 52 52 52 51 49 46 43 42 40 37 31 27 26 28 31 31 32 34 37 39 39 40 42 42 41 42 40 39 40 40 39 38 39 40
57 54 52 51 51 51 50 50 51 53 53 53 53 51 49 45 42 39 35 33 33 31 31 34 33 35 38 41 42 44 42 41 43 45 44 44 43 43 43 41 40 42 43
58 56 55 54 53 52 51 51 50 52 52 52 52 52 48 42 39 37 36 36 36 36 35 37 37 38 40 44 45 45 43 43 43 43 45 46 47 48 46 44 45 46 44
56 57 56 56 56 55 54 53 51 51 51 49 48 47 45 41 39 38 38 39 39 39 38 40 40 41 44 45 46 45 45 45 44 45 46 47 46 47 47 47 46 46 46
51 52 55 56 57 58 58 56 55 53 51 49 48 46 46 44 43 43 42 42 42 41 40 43 44 44 44 45 46 47 47 47 49 49 48 49 49 48 47 46 46 46 48
51 48 47 49 57 55 58 59 58 56 54 54 51 50 49 47 46 44 45 45 46 44 44 45 46 47 46 45 46 46 48 49 51 51 51 50 51 52 49 47 48 48 49
62 67 61 58 60 58 60 60 62 59 57 57 55 54 51 50 48 46 47 49 50 49 47 49 50 47 46 47 47 46 47 48 48 48 50 52 52 52 50 50 49 49 50
64 61 58 60 57 61 63 64 64 62 59 58 57 53 52 52 52 50 49 51 52 51 52 51 50 46 45 47 48 47 44 45 46 46 48 50 52 51 50 52 52 52 52
53 65 58 60 58 51 53 59 65 63 60 56 55 55 54 53 53 53 54 52 52 51 53 51 45 45 45 48 48 48 48 44 44 45 48 50 52 52 54 54 55 55 55
57 67 55 47 46 50 52 54 59 60 58 58 58 56 54 56 53 51 51 53 51 52 50 48 47 48 46 49 51 49 50 49 50 50 52 54 55 55 56 59 59 55 58
54 59 43 38 39 37 40 55 59 58 58 58 58 56 56 54 52 53 54 52 55 52 51 50 53 50 47 52 53 53 52 52 52 54 54 54 57 59 64 58 60 61 65
80 59 65 50 45 49 54 48 50 56 57 57 58 56 55 54 55 52 57 56 54 53 57 54 54 50 51 54 57 59 55 53 59 58 57 56 60 64 65 66 69 68 70
71 66 71 82 54 49 47 49 46 46 53 57 54 53 58 61 61 59 60 54 53 51 58 56 56 52 61 64 58 60 57 64 69 70 67 65 64 70 69 73 75 75 73
79 72 74 77 61 57 42 49 47 41 43 49 51 49 46 50 50 54 57 60 63 61 56 57 59 61 59 58 63 61 67 70 70 72 67 68 75 79 78 78 75 77 72
83 90 82 75 66 54 59 44 47 51 45 48 55 49 49 49 56 61 60 58 62 64 60 63 65 59 59 64 70 70 73 78 81 73 73 77 78 80 81 77 76 73 74
84 72 95 87 77 68 65 64 50 49 51 52 55 44 43 53 55 55 61 60 60 62 63 60 57 62 65 70 72 78 81 76 73 77 79 81 85 84 82 80 78 80 83
93 82 78 87 83 69 68 70 71 59 56 60 56 54 54 59 62 62 63 64 63 64 61 63 64 61 63 70 69 74 75 74 78 81 80 81 83 80 81 82 86 89 92
89 81 93 90 85 75 79 77 74 63 65 61 57 58 60 59 57 58 61 62 64 68 67 66 64 62 66 68 77 80 84 85 79 80 84 89 84 86 87 92 98 99 92
Wind_Direction
242 242 239 242 247 250 252 256 256 256 253 254 254 256 255 256 257 266 273 277 278 278 281 282 284 283 284 287 289 291 293 295 296 297 296 295 295 292 293 291 288 286 286
239 239 240 241 244 248 252 257 257 257 255 253 255 255 255 254 258 259 262 269 269 271 275 278 283 281 281 282 286 289 291 293 295 293 293 293 294 293 292 291 289 288 287
234 236 239 242 243 245 250 251 250 254 259 258 259 260 258 259 261 262 265 267 271 272 275 278 280 283 283 286 289 290 289 289 290 291 292 292 292 292 292 293 288 287 287
234 235 239 243 243 244 246 249 253 254 254 259 261 260 261 261 264 267 268 269 272 274 275 277 277 277 281 284 287 288 291 292 295 294 293 293 292 294 295 293 291 288 290
234 235 237 239 242 243 245 249 252 254 253 258 259 261 260 261 265 271 271 273 275 274 276 276 273 275 283 289 295 296 297 296 296 297 295 293 293 294 297 295 292 290 290
235 236 238 238 240 242 243 247 250 251 255 255 258 260 264 267 270 272 274 277 272 267 268 273 283 290 294 294 297 298 297 297 296 295 295 295 293 292 294 296 293 291 291
235 239 240 240 241 244 244 245 248 251 254 257 259 260 261 265 270 271 271 271 263 263 270 281 288 293 297 298 300 299 296 296 295 296 296 294 293 291 290 292 294 292 290
233 237 241 243 243 245 247 246 248 250 253 256 259 262 263 265 269 269 269 264 259 265 275 283 289 292 294 295 298 298 299 299 299 299 299 297 295 293 293 294 297 295 290
233 234 237 239 242 244 245 247 247 248 250 255 257 259 263 265 267 268 264 258 257 266 277 280 286 290 294 298 301 297 297 297 297 296 297 297 296 295 296 296 296 296 295
231 234 237 238 241 243 245 248 249 250 249 250 254 259 261 262 262 263 259 256 261 267 273 278 284 289 296 298 300 299 297 295 294 295 298 299 296 295 295 295 295 295 295
231 235 236 238 239 242 245 248 250 250 250 250 252 254 257 257 257 257 257 260 265 270 276 283 288 290 295 296 296 296 296 294 292 294 296 298 299 299 300 298 297 298 299
233 235 236 237 238 241 243 245 247 249 250 250 249 253 255 253 254 256 259 260 265 271 279 283 286 290 292 293 292 293 293 294 296 296 296 297 300 301 301 301 300 300 300
234 237 237 238 240 243 243 244 245 246 247 248 249 250 252 254 257 260 263 263 268 273 278 282 284 286 286 287 289 290 292 294 295 296 301 301 301 301 300 300 299 300 302
245 238 244 249 247 246 244 244 245 246 246 249 250 250 251 255 258 260 264 266 270 274 277 280 282 284 282 285 288 288 289 291 294 298 299 298 299 301 301 302 302 302 302
235 242 249 253 256 251 249 246 245 246 247 248 250 251 254 254 257 261 265 268 271 273 276 279 278 279 284 284 283 284 288 291 294 297 298 298 299 300 300 301 302 303 302
213 230 242 249 250 252 251 249 245 245 246 248 250 252 253 256 258 262 263 269 270 274 277 279 280 281 282 282 283 284 287 289 292 294 296 298 298 298 299 303 300 300 301
215 229 239 250 251 249 254 252 246 245 245 248 249 252 255 256 258 262 266 265 270 275 279 280 279 279 280 281 282 281 285 285 289 297 298 298 298 298 298 300 300 300 302
209 225 230 238 244 245 248 252 249 246 248 249 252 255 257 258 261 262 263 267 270 276 278 278 274 275 278 282 283 281 285 283 287 296 299 296 297 298 300 301 300 300 301
191 209 215 217 229 242 247 247 247 246 249 250 252 256 261 259 258 264 267 267 273 274 273 273 274 276 283 283 282 284 282 283 286 292 296 295 295 297 303 300 300 299 300
189 194 198 230 218 235 241 244 247 250 251 251 254 257 258 260 264 268 272 274 272 274 267 269 282 279 288 282 281 281 280 285 291 290 292 290 294 300 298 297 301 302 301
189 183 188 198 215 226 225 244 244 245 245 243 247 257 258 257 263 271 268 266 264 270 274 278 279 279 286 288 282 284 279 287 291 290 289 291 298 298 297 296 300 301 301
192 192 194 192 201 214 222 232 235 243 243 245 245 255 262 257 259 263 264 265 266 268 272 272 277 281 281 279 283 284 285 290 287 291 294 294 295 298 296 297 298 300 301
190 192 199 196 195 202 198 212 226 233 242 249 247 254 253 260 261 263 264 271 265 265 270 276 279 279 280 283 282 279 282 283 287 290 289 293 294 295 297 298 300 303 299
189 192 199 201 199 203 201 211 214 220 236 240 243 248 256 257 255 258 263 268 266 270 276 271 268 277 285 282 274 278 284 285 284 284 287 289 294 295 296 298 298 300 308
195 191 205 201 199 197 205 211 214 219 213 225 233 238 240 245 253 261 266 267 268 270 269 265 269 280 277 278 283 284 281 281 285 285 288 291 293 295 297 299 300 302 306
196 202 213 204 203 202 204 208 209 212 217 222 234 249 249 247 249 255 259 261 263 264 270 274 269 267 264 269 269 274 280 279 284 285 291 290 291 295 295 296 301 304 304
Height
10832 10836 10839 10842 10845 10848 10850 10852 10854 10856 10857 10858 10859 10860 10861 10863 10864 10864 10865 10865 10865 10865 10865 10865 10865 10865 10864 10864 10864 10863 10863 10862 10862 10861 10859 10858 10856 10854 10852 10850 10848 10845 10843
10824 10828 10832 10836 10840 10843 10845 10848 10850 10851 10853 10854 10855 10857 10858 10860 10861 10862 10863 10862 10863 10863 10862 10862 10862 10861 10861 10861 10860 10860 10859 10858 10857 10856 10855 10854 10852 10849 10848 10845 10842 10840 10838
10816 10820 10824 10829 10833 10837 10840 10843 10845 10847 10849 10850 10852 10853 10854 10856 10857 10858 10858 10859 10859 10859 10859 10858 10858 10858 10857 10857 10856 10855 10855 10853 10852 10851 10850 10849 10847 10845 10842 10840 10837 10835 10833
10809 10812 10817 10822 10826 10831 10835 10838 10840 10843 10844 10845 10847 10849 10851 10852 10853 10853 10854 10854 10854 10855 10854 10854 10854 10854 10854 10853 10851 10850 10849 10848 10846 10845 10844 10843 10841 10839 10837 10835 10832 10830 10828
10800 10805 10810 10815 10819 10824 10828 10831 10834 10837 10839 10841 10843 10844 10845 10847 10848 10848 10849 10849 10849 10849 10849 10849 10850 10850 10850 10849 10846 10845 10844 10843 10842 10840 10839 10838 10836 10834 10832 10830 10827 10825 10823
10793 10798 10804 10808 10812 10817 10821 10824 10828 10830 10832 10835 10837 10839 10840 10841 10843 10843 10844 10843 10844 10844 10844 10844 10845 10846 10845 10844 10842 10841 10840 10838 10837 10835 10834 10832 10830 10828 10826 10824 10822 10820 10817
10785 10792 10797 10802 10806 10809 10813 10817 10820 10824 10826 10829 10830 10833 10835 10836 10837 10837 10838 10838 10839 10839 10839 10838 10840 10840 10839 10838 10837 10836 10834 10833 10831 10830 10828 10826 10824 10822 10820 10819 10817 10815 10812
10779 10785 10790 10795 10799 10804 10807 10810 10814 10816 10819 10822 10824 10826 10828 10830 10830 10831 10831 10832 10834 10834 10834 10833 10835 10834 10833 10832 10832 10831 10828 10827 10825 10824 10822 10820 10817 10815 10814 10812 10810 10809 10807
10769 10776 10781 10786 10790 10795 10800 10803 10806 10809 10812 10814 10817 10819 10821 10823 10824 10825 10825 10827 10829 10830 10829 10827 10830 10830 10828 10826 10825 10825 10823 10820 10819 10817 10815 10814 10812 10810 10808 10806 10804 10802 10800
10759 10766 10772 10778 10782 10786 10791 10796 10800 10802 10804 10807 10810 10811 10814 10816 10817 10818 10819 10821 10822 10824 10823 10822 10824 10825 10823 10820 10818 10817 10816 10814 10812 10810 10809 10808 10806 10805 10803 10801 10798 10796 10794
10753 10757 10763 10768 10773 10778 10783 10788 10792 10795 10796 10799 10802 10804 10807 10809 10810 10811 10813 10814 10815 10816 10817 10815 10816 10817 10816 10814 10812 10810 10808 10806 10805 10804 10802 10800 10799 10797 10795 10793 10791 10788 10786
10744 10747 10752 10757 10762 10769 10773 10778 10782 10786 10789 10791 10794 10797 10799 10802 10804 10805 10806 10807 10808 10809 10810 10808 10809 10809 10808 10806 10805 10803 10801 10800 10798 10797 10795 10793 10790 10788 10787 10785 10783 10781 10778
10733 10738 10741 10747 10752 10757 10764 10768 10772 10776 10781 10784 10787 10790 10793 10795 10797 10798 10799 10799 10800 10802 10803 10801 10801 10801 10799 10798 10797 10795 10794 10792 10790 10789 10787 10785 10783 10781 10779 10777 10775 10772 10770
10732 10731 10735 10740 10741 10748 10754 10759 10763 10767 10772 10776 10779 10782 10785 10788 10790 10791 10791 10791 10791 10793 10794 10793 10792 10792 10791 10789 10788 10787 10785 10784 10781 10780 10779 10776 10774 10772 10771 10769 10767 10764 10761
10726 10721 10727 10732 10735 10738 10743 10749 10753 10758 10763 10766 10770 10774 10777 10780 10782 10784 10784 10783 10782 10783 10785 10784 10782 10782 10782 10781 10779 10778 10777 10775 10774 10772 10770 10768 10765 10764 10762 10760 10758 10755 10752
10695 10707 10714 10723 10727 10730 10733 10738 10743 10749 10753 10756 10760 10764 10767 10770 10773 10775 10776 10774 10774 10773 10774 10774 10773 10772 10772 10771 10769 10768 10768 10767 10765 10763 10761 10759 10757 10755 10753 10751 10749 10747 10744
10699 10699 10710 10713 10716 10719 10723 10728 10733 10739 10743 10747 10751 10754 10757 10760 10763 10766 10767 10765 10764 10764 10763 10764 10764 10763 10762 10760 10760 10759 10759 10758 10756 10754 10751 10749 10747 10745 10744 10742 10740 10737 10734
10689 10689 10702 10704 10706 10709 10714 10719 10724 10729 10734 10738 10742 10744 10747 10750 10753 10756 10757 10757 10756 10755 10754 10754 10754 10753 10753 10751 10750 10750 10749 10747 10746 10743 10741 10738 10736 10734 10733 10731 10728 10725 10722
10671 10675 10691 10693 10698 10700 10704 10711 10715 10719 10724 10728 10732 10735 10738 10741 10743 10744 10747 10747 10746 10745 10744 10743 10744 10744 10743 10741 10738 10738 10739 10737 10736 10734 10731 10729 10726 10724 10722 10719 10717 10714 10711
10650 10665 10679 10686 10689 10694 10695 10701 10706 10709 10712 10717 10722 10725 10728 10732 10733 10734 10737 10737 10735 10734 10734 10733 10735 10736 10734 10732 10728 10726 10726 10725 10723 10722 10720 10717 10716 10714 10711 10708 10705 10703 10698
10637 10647 10663 10673 10681 10680 10681 10691 10695 10698 10700 10706 10711 10714 10717 10720 10723 10725 10724 10723 10724 10724 10724 10724 10725 10723 10723 10721 10717 10715 10713 10711 10708 10707 10705 10704 10702 10700 10697 10696 10692 10687 10685
10624 10633 10645 10653 10662 10666 10674 10677 10681 10686 10691 10695 10699 10701 10704 10707 10710 10711 10712 10712 10713 10713 10712 10712 10712 10711 10710 10708 10706 10704 10701 10698 10693 10690 10689 10689 10687 10684 10682 10679 10677 10674 10670
10611 10624 10634 10639 10648 10660 10666 10667 10673 10676 10681 10684 10687 10690 10694 10697 10699 10698 10700 10701 10700 10700 10701 10701 10700 10698 10696 10694 10691 10688 10685 10682 10681 10678 10676 10674 10671 10668 10665 10664 10662 10658 10655
10602 10612 10629 10634 10639 10646 10650 10658 10659 10666 10668 10671 10675 10679 10683 10685 10685 10685 10687 10688 10687 10688 10689 10686 10685 10684 10682 10679 10673 10672 10670 10668 10667 10665 10663 10659 10656 10653 10650 10647 10644 10642 10638
10600 10606 10620 10626 10630 10627 10638 10643 10650 10649 10653 10656 10661 10665 10667 10669 10672 10674 10675 10675 10675 10675 10674 10672 10671 10668 10667 10663 10658 10656 10653 10653 10652 10651 10648 10645 10641 10637 10633 10631 10627 10623 10620
10587 10597 10609 10615 10616 10616 10625 10631 10635 10640 10640 10646 10650 10654 10656 10658 10659 10661 10660 10659 10659 10659 10659 10656 10655 10654 10649 10648 10643 10643 10641 10637 10637 10634 10633 10630 10624 10619 10616 10613 10607 10604 10599